TimeMDT,TemperatureF,Dew PointF,Humidity,Sea Level PressureIn,VisibilityMPH,Wind Direction,Wind SpeedMPH,Gust SpeedMPH,PrecipitationIn,Events,Conditions,WindDirDegrees,DateUTC
12:15 AM,30.2,30.2,100,30.21,10.0,North,8.1,-,N/A,,Clear,10,2012-10-31 06:15:00
12:35 AM,30.2,28.4,93,30.22,10.0,North,8.1,-,N/A,,Clear,10,2012-10-31 06:35:00
12:55 AM,30.2,28.4,93,30.22,10.0,North,6.9,-,N/A,,Clear,10,2012-10-31 06:55:00
1:15 AM,30.2,28.4,93,30.22,10.0,North,5.8,-,N/A,,Clear,10,2012-10-31 07:15:00
1:35 AM,30.2,28.4,93,30.22,10.0,NNE,5.8,-,N/A,,Clear,20,2012-10-31 07:35:00
1:55 AM,30.2,28.4,93,30.23,10.0,NNE,4.6,-,N/A,,Clear,30,2012-10-31 07:55:00
2:15 AM,30.2,28.4,93,30.23,10.0,North,9.2,-,N/A,,Clear,10,2012-10-31 08:15:00
2:35 AM,30.2,28.4,93,30.23,10.0,NNE,4.6,-,N/A,,Clear,30,2012-10-31 08:35:00
2:55 AM,28.4,26.6,93,30.24,10.0,North,5.8,-,N/A,,Clear,10,2012-10-31 08:55:00
3:35 AM,28.4,28.4,100,30.24,10.0,North,8.1,-,N/A,,Clear,10,2012-10-31 09:35:00
3:56 AM,28.4,28.4,100,30.24,10.0,North,8.1,-,N/A,,Clear,10,2012-10-31 09:56:00
4:15 AM,28.4,28.4,100,30.24,10.0,North,8.1,-,N/A,,Clear,10,2012-10-31 10:15:00
4:35 AM,28.4,28.4,100,30.23,10.0,North,6.9,-,N/A,,Clear,10,2012-10-31 10:35:00
4:55 AM,28.4,28.4,100,30.24,10.0,NE,4.6,-,N/A,,Clear,40,2012-10-31 10:55:00
5:15 AM,28.4,28.4,100,30.24,10.0,NNE,4.6,-,N/A,,Clear,20,2012-10-31 11:15:00
5:55 AM,28.4,28.4,100,30.24,10.0,North,6.9,-,N/A,,Clear,10,2012-10-31 11:55:00
6:35 AM,26.6,24.8,93,30.24,10.0,North,5.8,-,N/A,,Clear,10,2012-10-31 12:35:00
6:52 AM,26.6,26.6,100,30.24,10.0,Calm,Calm,-,N/A,,Clear,0,2012-10-31 12:52:00
7:52 AM,26.6,26.6,100,30.25,10.0,Calm,Calm,-,N/A,,Clear,0,2012-10-31 13:52:00
8:51 AM,28.4,26.6,93,30.27,10.0,North,3.5,-,N/A,,Clear,350,2012-10-31 14:51:00
10:52 AM,39.2,30.2,70,30.27,10.0,Calm,Calm,-,N/A,,Clear,0,2012-10-31 16:52:00
10:58 AM,35.6,30.2,81,30.27,10.0,Calm,Calm,-,N/A,,Clear,0,2012-10-31 16:58:00
11:52 AM,46.4,30.2,53,30.26,10.0,Calm,Calm,-,N/A,,Clear,0,2012-10-31 17:52:00
12:51 PM,51.8,30.2,44,30.22,10.0,Calm,Calm,-,N/A,,Clear,0,2012-10-31 18:51:00
1:51 PM,55.4,30.2,38,30.19,10.0,SSE,5.8,-,N/A,,Clear,160,2012-10-31 19:51:00
2:51 PM,60.8,28.4,29,30.16,10.0,SSW,5.8,-,N/A,,Clear,210,2012-10-31 20:51:00
3:55 PM,62.6,26.6,26,30.13,10.0,South,10.4,-,N/A,,Clear,180,2012-10-31 21:55:00
4:51 PM,60.8,28.4,29,30.13,10.0,SW,3.5,-,N/A,,Clear,230,2012-10-31 22:51:00
5:45 PM,55.4,28.4,36,30.12,10.0,Calm,Calm,-,N/A,,Clear,0,2012-10-31 23:45:00
6:52 PM,51.8,26.6,38,30.12,10.0,Calm,Calm,-,N/A,,Clear,0,2012-11-01 00:52:00
7:57 PM,50.0,28.4,43,30.12,10.0,Calm,Calm,-,N/A,,Clear,0,2012-11-01 01:57:00
8:51 PM,39.2,32.0,75,30.11,10.0,Calm,Calm,-,N/A,,Clear,0,2012-11-01 02:51:00
8:55 PM,39.2,32.0,75,30.12,10.0,Calm,Calm,-,N/A,,Clear,0,2012-11-01 02:55:00
9:15 PM,37.4,30.2,75,30.11,10.0,Calm,Calm,-,N/A,,Clear,0,2012-11-01 03:15:00
9:35 PM,37.4,30.2,75,30.11,10.0,North,5.8,-,N/A,,Clear,10,2012-11-01 03:35:00
9:55 PM,37.4,30.2,75,30.11,10.0,North,8.1,-,N/A,,Clear,360,2012-11-01 03:55:00
10:15 PM,35.6,30.2,81,30.11,10.0,North,6.9,-,N/A,,Clear,350,2012-11-01 04:15:00
10:35 PM,37.4,30.2,75,30.11,10.0,North,9.2,-,N/A,,Clear,360,2012-11-01 04:35:00
10:55 PM,37.4,30.2,75,30.11,10.0,North,9.2,-,N/A,,Clear,360,2012-11-01 04:55:00
11:15 PM,33.8,30.2,87,30.11,10.0,North,4.6,-,N/A,,Clear,350,2012-11-01 05:15:00
11:35 PM,35.6,30.2,81,30.10,10.0,North,9.2,-,N/A,,Clear,360,2012-11-01 05:35:00
11:55 PM,33.8,30.2,87,30.10,10.0,NNE,6.9,-,N/A,,Clear,20,2012-11-01 05:55:00